FW9020 Weather Reports


time (UTC)temp
C
wind
direction
speed
KPH
gust
KPH
rain 1hr
cm
rain 24hr
cm
rain mn
cm
humidity
%
barometer
mb
20260505041758 17 241 4.8 4.8 0.00 0.00 0.00 73 1000.6
20260505041255 16 207 4.8 4.8 0.00 0.00 0.00 75 1000.6
20260505040752 16 207 4.8 4.8 0.00 0.00 0.00 75 1000.6
20260505040250 16 207 4.8 4.8 0.00 0.00 0.00 75 1000.6
20260505035747 16 168 4.8 11.3 0.00 0.00 0.00 75 1000.3
20260505035242 16 175 6.4 8.0 0.00 0.00 0.00 74 1000.3
20260505034739 16 195 6.4 8.0 0.00 0.00 0.00 74 999.9
20260505034236 16 224 4.8 4.8 0.00 0.00 0.00 74 999.9
20260505033733 16 222 8.0 9.7 0.00 0.00 0.00 74 999.9
20260505033231 16 150 8.0 11.3 0.00 0.00 0.00 73 1000.3
20260505032728 16 224 4.8 4.8 0.00 0.00 0.00 73 1000.3
20260505032224 16 212 4.8 8.0 0.00 0.00 0.00 73 1000.3
20260505031722 16 208 3.2 4.8 0.00 0.00 0.00 73 1000.6
20260505031218 16 176 4.8 8.0 0.00 0.00 0.00 72 1000.3
20260505030715 16 213 3.2 3.2 0.00 0.00 0.00 71 1000.6
20260505030211 16 148 6.4 8.0 0.00 0.00 0.00 70 1000.6
20260505025707 16 224 1.6 3.2 0.00 0.00 0.00 70 1000.6
20260505025205 16 163 1.6 1.6 0.00 0.00 0.00 68 1000.6
20260505024703 16 214 4.8 4.8 0.00 0.00 0.00 66 1000.6
20260505024200 16 229 1.6 1.6 0.00 0.00 0.00 65 1000.9
20260505023657 17 201 4.8 8.0 0.00 0.00 0.00 62 1000.9
20260505023154 17 204 3.2 4.8 0.00 0.00 0.00 61 1000.9
20260505022652 17 235 4.8 4.8 0.00 0.00 0.00 59 1000.6
20260505022149 17 235 4.8 4.8 0.00 0.00 0.00 59 1000.9
20260505021645 17 220 6.4 9.7 0.00 0.00 0.00 59 1000.9
20260505021142 17 202 4.8 4.8 0.00 0.00 0.00 57 1000.9
20260505020638 17 202 4.8 4.8 0.00 0.00 0.00 57 1000.6
20260505020134 17 229 3.2 3.2 0.00 0.00 0.00 57 1000.6
20260505015631 17 229 3.2 3.2 0.00 0.00 0.00 57 1000.6
20260505015128 17 215 1.6 1.6 0.00 0.00 0.00 57 1000.6
20260505014624 17 215 1.6 1.6 0.00 0.00 0.00 57 1000.6
20260505014122 17 203 4.8 4.8 0.00 0.00 0.00 56 1000.6
20260505013619 17 195 1.6 3.2 0.00 0.00 0.00 56 1000.6
20260505013116 17 195 1.6 3.2 0.00 0.00 0.00 56 1000.9
20260505012615 17 213 3.2 4.8 0.00 0.00 0.00 55 1000.6
20260505012111 17 223 1.6 1.6 0.00 0.00 0.00 53 1000.6
20260505011606 17 215 3.2 3.2 0.00 0.00 0.00 53 1000.6
20260505011104 17 229 0.0 0.0 0.00 0.00 0.00 54 1000.6
20260505010559 17 228 0.0 1.6 0.00 0.00 0.00 54 1000.6
20260505010056 17 237 0.0 0.0 0.00 0.00 0.00 53 1000.6
20260505005552 18 233 0.0 0.0 0.00 0.00 0.00 52 1000.6
20260505005049 18 231 0.0 0.0 0.00 0.00 0.00 51 1000.6
20260505004546 18 218 1.6 3.2 0.00 0.00 0.00 50 1000.6
20260505004043 18 258 3.2 4.8 0.00 0.00 0.00 50 1000.6
20260505003541 19 240 6.4 8.0 0.00 0.00 0.00 49 1000.6
20260505003038 19 246 3.2 4.8 0.00 0.00 0.00 50 1000.6
20260505002537 19 232 0.0 1.6 0.00 0.00 0.00 50 1000.6
20260505002032 19 253 4.8 9.7 0.00 0.00 0.00 48 1000.6
20260505001528 20 230 3.2 3.2 0.00 0.00 0.00 48 1000.9
20260505001025 20 245 3.2 3.2 0.00 0.00 0.00 49 1000.6
20260505000523 20 241 3.2 3.2 0.00 0.00 0.00 47 1000.9
20260505000020 20 241 3.2 3.2 0.00 0.00 0.00 47 1000.6
20260504235517 21 261 8.0 11.3 0.00 0.00 0.00 46 1000.9
20260504235013 21 254 9.7 16.1 0.00 0.00 0.00 46 1000.9
20260504234511 21 254 9.7 16.1 0.00 0.00 0.00 46 1000.9
20260504234008 21 228 6.4 9.7 0.00 0.00 0.00 45 1000.6
20260504233503 21 228 6.4 9.7 0.00 0.00 0.00 45 1000.6
20260504233000 21 261 8.0 9.7 0.00 0.00 0.00 46 1000.9
20260504232457 21 251 9.7 11.3 0.00 0.00 0.00 46 1000.6
20260504231954 21 253 11.3 12.9 0.00 0.00 0.00 46 1000.9
20260504231450 21 241 6.4 9.7 0.00 0.00 0.00 48 1000.9
20260504230947 21 240 6.4 14.5 0.00 0.00 0.00 46 1000.9
20260504230444 22 252 6.4 9.7 0.00 0.00 0.00 50 1000.9
20260504225943 22 250 16.1 17.7 0.00 0.00 0.00 47 1000.9
20260504225439 21 265 8.0 11.3 0.00 0.00 0.00 49 1000.9
20260504224936 21 225 6.4 8.0 0.00 0.00 0.00 48 1000.9
20260504224432 21 231 12.9 16.1 0.00 0.00 0.00 49 1000.9
20260504223930 21 216 4.8 9.7 0.00 0.00 0.00 50 1001.3
20260504223425 21 276 12.9 14.5 0.00 0.00 0.00 48 1000.9
20260504222921 21 234 4.8 4.8 0.00 0.00 0.00 49 1000.9
20260504222419 21 237 6.4 8.0 0.00 0.00 0.00 48 1000.9
20260504221917 22 266 11.3 14.5 0.00 0.00 0.00 44 1000.9
20260504221414 22 243 12.9 17.7 0.00 0.00 0.00 43 1000.9
20260504220911 22 257 17.7 22.5 0.00 0.00 0.00 43 1001.3
20260504220407 22 283 8.0 11.3 0.00 0.00 0.00 48 1001.3
20260504215904 21 216 12.9 20.9 0.00 0.00 0.00 47 1000.9
20260504215401 21 234 11.3 16.1 0.00 0.00 0.00 45 1001.3
20260504214857 21 209 8.0 16.1 0.00 0.00 0.00 46 1001.3
20260504214354 21 223 20.9 27.4 0.00 0.00 0.00 45 1001.3
20260504213851 22 297 6.4 11.3 0.00 0.00 0.00 47 1001.3
20260504213346 22 266 12.9 16.1 0.00 0.00 0.00 46 1000.9
20260504212844 22 228 11.3 17.7 0.00 0.00 0.00 44 1001.3
20260504212340 22 224 14.5 17.7 0.00 0.00 0.00 44 1000.9
20260504211838 22 219 12.9 16.1 0.00 0.00 0.00 45 1000.9
20260504211334 22 244 8.0 11.3 0.00 0.00 0.00 45 1000.9
20260504210832 22 207 14.5 17.7 0.00 0.00 0.00 45 1001.3
20260504210328 22 259 8.0 9.7 0.00 0.00 0.00 45 1000.9
20260504205825 22 279 14.5 20.9 0.00 0.00 0.00 45 1000.9
20260504205323 22 244 20.9 25.7 0.00 0.00 0.00 43 1000.9
20260504204821 22 243 14.5 20.9 0.00 0.00 0.00 44 1000.9
20260504204319 22 258 24.1 27.4 0.00 0.00 0.00 42 1001.3
20260504203818 22 226 9.7 11.3 0.00 0.00 0.00 45 1001.3
20260504203315 22 237 16.1 17.7 0.00 0.00 0.00 46 1001.3
20260504202810 22 284 14.5 17.7 0.00 0.00 0.00 48 1001.3
20260504202308 22 235 8.0 11.3 0.00 0.00 0.00 47 1001.3
20260504201804 22 245 16.1 16.1 0.00 0.00 0.00 47 1001.3
20260504201302 22 248 9.7 16.1 0.00 0.00 0.00 48 1001.3
20260504200759 22 221 12.9 17.7 0.00 0.00 0.00 47 1001.3
20260504200255 23 266 4.8 9.7 0.00 0.00 0.00 50 1001.3
20260504195752 22 235 3.2 4.8 0.00 0.00 0.00 50 1001.7
20260504195248 22 239 12.9 14.5 0.00 0.00 0.00 50 1001.3
20260504194745 22 231 8.0 12.9 0.00 0.00 0.00 50 1002.0
20260504194241 22 214 8.0 11.3 0.00 0.00 0.00 51 1002.0
20260504193737 22 268 20.9 24.1 0.00 0.00 0.00 50 1002.0
20260504193235 22 251 12.9 20.9 0.00 0.00 0.00 49 1002.0
20260504192733 22 244 17.7 20.9 0.00 0.00 0.00 54 1002.0
20260504192231 22 264 24.1 29.0 0.00 0.00 0.00 50 1002.0
20260504191729 22 245 14.5 16.1 0.00 0.00 0.00 53 1002.4
20260504191226 21 262 16.1 27.4 0.00 0.00 0.00 53 1002.4
20260504190721 21 258 22.5 24.1 0.00 0.00 0.00 53 1002.4
20260504190218 21 237 14.5 17.7 0.00 0.00 0.00 53 1002.4
20260504185714 21 238 19.3 25.7 0.00 0.00 0.00 55 1002.7
20260504185211 21 240 19.3 22.5 0.00 0.00 0.00 57 1002.7
20260504184707 21 240 19.3 22.5 0.00 0.00 0.00 57 1002.7
20260504184203 21 240 19.3 22.5 0.00 0.00 0.00 57 1002.7
20260504183659 21 129 6.4 11.3 0.00 0.00 0.00 57 1003.1
20260504183156 21 190 9.7 12.9 0.00 0.00 0.00 55 1003.1
20260504182654 20 208 6.4 11.3 0.00 0.00 0.00 57 1003.1
20260504182152 20 227 11.3 17.7 0.00 0.00 0.00 58 1003.1
20260504181649 20 231 4.8 8.0 0.00 0.00 0.00 59 1003.1
20260504181147 20 230 16.1 20.9 0.00 0.00 0.00 59 1003.1
20260504180646 20 230 16.1 20.9 0.00 0.00 0.00 59 1003.1
20260504180144 20 238 8.0 11.3 0.00 0.00 0.00 59 1003.1
20260504175641 20 270 22.5 32.2 0.00 0.00 0.00 58 1003.1
20260504175137 20 240 8.0 14.5 0.00 0.00 0.00 59 1003.1
20260504174636 19 256 12.9 25.7 0.00 0.00 0.00 62 1003.4
20260504174131 19 179 8.0 11.3 0.00 0.00 0.00 60 1003.4
20260504173629 19 179 8.0 11.3 0.00 0.00 0.00 60 1003.7
20260504173126 19 247 6.4 9.7 0.00 0.00 0.00 60 1003.7
20260504172623 19 240 8.0 11.3 0.00 0.00 0.00 59 1003.4
20260504172120 19 269 8.0 11.3 0.00 0.00 0.00 60 1003.7
20260504171616 19 260 11.3 14.5 0.00 0.00 0.00 58 1003.7
20260504171113 19 228 9.7 14.5 0.00 0.00 0.00 60 1003.7
20260504170609 18 189 12.9 16.1 0.00 0.00 0.00 59 1003.7
20260504170107 18 224 8.0 11.3 0.00 0.00 0.00 58 1003.7
20260504150952 17 258 17.7 24.1 0.00 0.00 0.00 62 1004.4
20260504150449 17 247 6.4 8.0 0.00 0.00 0.00 63 1004.4
20260504140916 16 238 6.4 11.3 0.00 0.00 0.00 62 1004.4
20260504140412 16 244 12.9 24.1 0.00 0.00 0.00 62 1004.8
20260504130337 15 227 8.0 9.7 0.00 0.00 0.00 65 1005.1
20260504120300 13 141 11.3 14.5 0.00 0.00 0.00 66 1005.1
20260504110224 11 234 8.0 9.7 0.00 0.00 0.00 69 1005.4
20260504100148 -17 0.0 0.0 0.00 0.00 0.00 1005.1
20260504090110 -17 0.0 0.0 0.00 0.00 0.00 1005.1
20260504081541 -17 0.0 0.0 0.00 0.00 0.00 1005.4
20260504081036 -17 0.0 0.0 0.00 0.00 0.00 1005.4
20260504080533 -17 0.0 0.0 0.00 0.00 0.00 1005.8
20260504050346 13 249 14.5 16.1 0.00 0.00 0.00 62 1006.8
20260504045843 -17 0.0 0.0 0.00 0.00 0.00 1006.8
20260504045338 -17 0.0 0.0 0.00 0.00 0.00 1006.8
20260504044835 -17 0.0 0.0 0.00 0.00 0.00 1006.8
20260504044333 -17 0.0 0.0 0.00 0.00 0.00 1006.8
20260504043830 -17 0.0 0.0 0.00 0.00 0.00 1006.8
20260504043326 -17 0.0 0.0 0.00 0.00 0.00 1006.8
20260504042824 -17 0.0 0.0 0.00 0.00 0.00 1006.8
20260504042320 -17 0.0 0.0 0.00 0.00 0.00 1006.8